Year,Month,Day,Hour,Minute,Value (Times are PST for temperature in C)
2010,08,03,00,00,17.30
2010,08,03,00,01,17.30
2010,08,03,00,02,17.30
2010,08,03,00,03,17.20
2010,08,03,00,04,17.30
2010,08,03,00,05,17.30
2010,08,03,00,06,17.30
2010,08,03,00,07,17.30
2010,08,03,00,08,17.30
2010,08,03,00,09,17.30
2010,08,03,00,10,17.30
2010,08,03,00,11,17.30
2010,08,03,00,12,17.30
2010,08,03,00,13,17.30
2010,08,03,00,14,17.30
2010,08,03,00,15,17.40
2010,08,03,00,16,17.40
2010,08,03,00,17,17.40
2010,08,03,00,18,17.50
2010,08,03,00,19,17.50
2010,08,03,00,20,17.60
2010,08,03,00,21,17.70
2010,08,03,00,22,17.70
2010,08,03,00,23,17.80
2010,08,03,00,24,17.90
2010,08,03,00,25,17.90
2010,08,03,00,26,17.90
2010,08,03,00,27,17.90
2010,08,03,00,28,18.00
2010,08,03,00,29,18.00
2010,08,03,00,30,18.10
2010,08,03,00,31,18.10
2010,08,03,00,32,18.10
2010,08,03,00,33,18.10
2010,08,03,00,34,18.10
2010,08,03,00,35,18.10
2010,08,03,00,36,18.10
2010,08,03,00,37,18.10
2010,08,03,00,38,18.10
2010,08,03,00,39,18.10
2010,08,03,00,40,18.10
2010,08,03,00,41,18.10
2010,08,03,00,42,18.10
2010,08,03,00,43,18.10
2010,08,03,00,44,18.10
2010,08,03,00,45,18.10
2010,08,03,00,46,18.10
2010,08,03,00,47,18.10
2010,08,03,00,48,18.10
2010,08,03,00,49,18.10
2010,08,03,00,50,18.10
2010,08,03,00,51,18.00
2010,08,03,00,52,18.00
2010,08,03,00,53,18.00
2010,08,03,00,54,18.00
2010,08,03,00,55,17.90
2010,08,03,00,56,17.90
2010,08,03,00,57,17.90
2010,08,03,00,58,17.90
2010,08,03,00,59,17.90
2010,08,03,01,00,17.90
2010,08,03,01,01,17.90
2010,08,03,01,02,17.80
2010,08,03,01,03,17.80
2010,08,03,01,04,17.80
2010,08,03,01,05,17.80
2010,08,03,01,06,17.80
2010,08,03,01,07,17.80
2010,08,03,01,08,17.80
2010,08,03,01,09,17.70
2010,08,03,01,10,17.70
2010,08,03,01,11,17.70
2010,08,03,01,12,17.70
2010,08,03,01,13,17.70
2010,08,03,01,14,17.70
2010,08,03,01,15,17.60
2010,08,03,01,16,17.60
2010,08,03,01,17,17.60
2010,08,03,01,18,17.60
2010,08,03,01,19,17.60
2010,08,03,01,20,17.60
2010,08,03,01,21,17.50
2010,08,03,01,22,17.50
2010,08,03,01,23,17.50
2010,08,03,01,24,17.50
2010,08,03,01,25,17.40
2010,08,03,01,26,17.40
2010,08,03,01,27,17.40
2010,08,03,01,28,17.40
2010,08,03,01,29,17.40
2010,08,03,01,30,17.40
2010,08,03,01,31,17.40
2010,08,03,01,32,17.30
2010,08,03,01,33,17.30
2010,08,03,01,34,17.30
2010,08,03,01,35,17.30
2010,08,03,01,36,17.30
2010,08,03,01,37,17.30
2010,08,03,01,38,17.30
2010,08,03,01,39,17.30
2010,08,03,01,40,17.30
2010,08,03,01,41,17.30
2010,08,03,01,42,17.30
2010,08,03,01,43,17.30
2010,08,03,01,44,17.20
2010,08,03,01,45,17.20
2010,08,03,01,46,17.20
2010,08,03,01,47,17.20
2010,08,03,01,48,17.20
2010,08,03,01,49,17.20
2010,08,03,01,50,17.20
2010,08,03,01,51,17.20
2010,08,03,01,52,17.20
2010,08,03,01,53,17.10
2010,08,03,01,54,17.10
2010,08,03,01,55,17.10
2010,08,03,01,56,17.10
2010,08,03,01,57,17.10
2010,08,03,01,58,17.10
2010,08,03,01,59,17.10
2010,08,03,02,00,17.00
2010,08,03,02,01,17.00
2010,08,03,02,02,17.00
2010,08,03,02,03,17.00
2010,08,03,02,04,16.90
2010,08,03,02,05,16.90
2010,08,03,02,06,16.90
2010,08,03,02,07,16.90
2010,08,03,02,08,16.90
2010,08,03,02,09,16.90
2010,08,03,02,10,16.90
2010,08,03,02,11,16.80
2010,08,03,02,12,16.80
2010,08,03,02,13,16.80
2010,08,03,02,14,16.80
2010,08,03,02,15,16.80
2010,08,03,02,16,16.80
2010,08,03,02,17,16.80
2010,08,03,02,18,16.80
2010,08,03,02,19,16.80
2010,08,03,02,20,16.80
2010,08,03,02,21,16.80
2010,08,03,02,22,16.80
2010,08,03,02,23,16.80
2010,08,03,02,24,16.80
2010,08,03,02,25,16.80
2010,08,03,02,26,16.80
2010,08,03,02,27,16.80
2010,08,03,02,28,16.80
2010,08,03,02,29,16.80
2010,08,03,02,30,16.80
2010,08,03,02,31,16.80
2010,08,03,02,32,16.80
2010,08,03,02,33,16.80
2010,08,03,02,34,16.80
2010,08,03,02,35,16.90
2010,08,03,02,36,16.90
2010,08,03,02,37,16.90
2010,08,03,02,38,16.90
2010,08,03,02,39,16.90
2010,08,03,02,40,17.00
2010,08,03,02,41,17.00
2010,08,03,02,42,17.00
2010,08,03,02,43,16.90
2010,08,03,02,44,16.90
2010,08,03,02,45,16.90
2010,08,03,02,46,16.90
2010,08,03,02,47,16.90
2010,08,03,02,48,16.90
2010,08,03,02,49,16.90
2010,08,03,02,50,16.90
2010,08,03,02,51,16.90
2010,08,03,02,52,16.90
2010,08,03,02,53,16.90
2010,08,03,02,54,16.90
2010,08,03,02,55,16.90
2010,08,03,02,56,16.80
2010,08,03,02,57,16.80
2010,08,03,02,58,16.80
2010,08,03,02,59,16.80
2010,08,03,03,00,16.80
2010,08,03,03,01,16.80
2010,08,03,03,02,16.80
2010,08,03,03,03,16.80
2010,08,03,03,04,16.80
2010,08,03,03,05,16.80
2010,08,03,03,06,16.70
2010,08,03,03,07,16.70
2010,08,03,03,08,16.70
2010,08,03,03,09,16.70
2010,08,03,03,10,16.60
2010,08,03,03,11,16.60
2010,08,03,03,12,16.60
2010,08,03,03,13,16.60
2010,08,03,03,14,16.50
2010,08,03,03,15,16.50
2010,08,03,03,16,16.40
2010,08,03,03,17,16.30
2010,08,03,03,18,16.30
2010,08,03,03,19,16.30
2010,08,03,03,20,16.20
2010,08,03,03,21,16.10
2010,08,03,03,22,16.10
2010,08,03,03,23,16.10
2010,08,03,03,24,16.00
2010,08,03,03,25,16.00
2010,08,03,03,26,16.00
2010,08,03,03,27,15.90
2010,08,03,03,28,15.90
2010,08,03,03,29,15.90
2010,08,03,03,30,15.80
2010,08,03,03,31,15.80
2010,08,03,03,32,15.80
2010,08,03,03,33,15.70
2010,08,03,03,34,15.70
2010,08,03,03,35,15.70
2010,08,03,03,36,15.60
2010,08,03,03,37,15.60
2010,08,03,03,38,15.50
2010,08,03,03,39,15.50
2010,08,03,03,40,15.40
2010,08,03,03,41,15.40
2010,08,03,03,42,15.40
2010,08,03,03,43,15.30
2010,08,03,03,44,15.30
2010,08,03,03,45,15.30
2010,08,03,03,46,15.20
2010,08,03,03,47,15.20
2010,08,03,03,48,15.20
2010,08,03,03,49,15.10
2010,08,03,03,50,15.10
2010,08,03,03,51,15.00
2010,08,03,03,52,15.00
2010,08,03,03,53,15.00
2010,08,03,03,54,15.00
2010,08,03,03,55,15.00
2010,08,03,03,56,15.00
2010,08,03,03,57,15.00
2010,08,03,03,58,15.00
2010,08,03,03,59,15.00
2010,08,03,04,00,14.90
2010,08,03,04,01,14.90
2010,08,03,04,02,14.90
2010,08,03,04,03,14.90
2010,08,03,04,04,14.80
2010,08,03,04,05,14.80
2010,08,03,04,06,14.80
2010,08,03,04,07,14.80
2010,08,03,04,08,14.80
2010,08,03,04,09,14.80
2010,08,03,04,10,14.70
2010,08,03,04,11,14.70
2010,08,03,04,12,14.60
2010,08,03,04,13,14.60
2010,08,03,04,14,14.60
2010,08,03,04,15,14.50
2010,08,03,04,16,14.50
2010,08,03,04,17,14.40
2010,08,03,04,18,14.40
2010,08,03,04,19,14.40
2010,08,03,04,20,14.40
2010,08,03,04,21,14.30
2010,08,03,04,22,14.30
2010,08,03,04,23,14.30
2010,08,03,04,24,14.30
2010,08,03,04,25,14.30
2010,08,03,04,26,14.30
2010,08,03,04,27,14.30
2010,08,03,04,28,14.30
2010,08,03,04,29,14.20
2010,08,03,04,30,14.20
2010,08,03,04,31,14.20
2010,08,03,04,32,14.10
2010,08,03,04,33,14.10
2010,08,03,04,34,14.10
2010,08,03,04,35,14.10
2010,08,03,04,36,14.20
2010,08,03,04,37,14.20
2010,08,03,04,38,14.10
2010,08,03,04,39,14.10
2010,08,03,04,40,14.10
2010,08,03,04,41,14.00
2010,08,03,04,42,14.00
2010,08,03,04,43,14.00
2010,08,03,04,44,14.00
2010,08,03,04,45,14.00
2010,08,03,04,46,14.00
2010,08,03,04,47,14.00
2010,08,03,04,48,13.90
2010,08,03,04,49,13.90
2010,08,03,04,50,13.90
2010,08,03,04,51,13.90
2010,08,03,04,52,13.90
2010,08,03,04,53,13.80
2010,08,03,04,54,13.80
2010,08,03,04,55,13.80
2010,08,03,04,56,13.80
2010,08,03,04,57,13.80
2010,08,03,04,58,13.80
2010,08,03,04,59,13.80
2010,08,03,05,00,13.70
2010,08,03,05,01,13.70
2010,08,03,05,02,13.70
2010,08,03,05,03,13.70
2010,08,03,05,04,13.70
2010,08,03,05,05,13.70
2010,08,03,05,06,13.70
2010,08,03,05,07,13.60
2010,08,03,05,08,13.60
2010,08,03,05,09,13.60
2010,08,03,05,10,13.60
2010,08,03,05,11,13.60
2010,08,03,05,12,13.60
2010,08,03,05,13,13.50
2010,08,03,05,14,13.50
2010,08,03,05,15,13.50
2010,08,03,05,16,13.50
2010,08,03,05,17,13.50
2010,08,03,05,18,13.50
2010,08,03,05,19,13.50
2010,08,03,05,20,13.60
2010,08,03,05,21,13.60
2010,08,03,05,22,13.60
2010,08,03,05,23,13.60
2010,08,03,05,24,13.50
2010,08,03,05,25,13.50
2010,08,03,05,26,13.50
2010,08,03,05,27,13.50
2010,08,03,05,28,13.50
2010,08,03,05,29,13.50
2010,08,03,05,30,13.40
2010,08,03,05,31,13.40
2010,08,03,05,32,13.40
2010,08,03,05,33,13.40
2010,08,03,05,34,13.40
2010,08,03,05,35,13.40
2010,08,03,05,36,13.40
2010,08,03,05,37,13.40
2010,08,03,05,38,13.40
2010,08,03,05,39,13.40
2010,08,03,05,40,13.40
2010,08,03,05,41,13.40
2010,08,03,05,42,13.30
2010,08,03,05,43,13.30
2010,08,03,05,44,13.30
2010,08,03,05,45,13.30
2010,08,03,05,46,13.20
2010,08,03,05,47,13.20
2010,08,03,05,48,13.20
2010,08,03,05,49,13.20
2010,08,03,05,50,13.20
2010,08,03,05,51,13.20
2010,08,03,05,52,13.20
2010,08,03,05,53,13.20
2010,08,03,05,54,13.20
2010,08,03,05,55,13.20
2010,08,03,05,56,13.20
2010,08,03,05,57,13.20
2010,08,03,05,58,13.20
2010,08,03,05,59,13.20
2010,08,03,06,00,13.20
2010,08,03,06,01,13.20
2010,08,03,06,02,13.20
2010,08,03,06,03,13.20
2010,08,03,06,04,13.10
2010,08,03,06,05,13.10
2010,08,03,06,06,13.10
2010,08,03,06,07,13.10
2010,08,03,06,08,13.10
2010,08,03,06,09,13.10
2010,08,03,06,10,13.20
2010,08,03,06,11,13.20
2010,08,03,06,12,13.20
2010,08,03,06,13,13.20
2010,08,03,06,14,13.20
2010,08,03,06,15,13.20
2010,08,03,06,16,13.30
2010,08,03,06,17,13.30
2010,08,03,06,18,13.30
2010,08,03,06,19,13.40
2010,08,03,06,20,13.50
2010,08,03,06,21,13.60
2010,08,03,06,22,13.70
2010,08,03,06,23,13.80
2010,08,03,06,24,13.90
2010,08,03,06,25,14.00
2010,08,03,06,26,14.00
2010,08,03,06,27,14.10
2010,08,03,06,28,14.10
2010,08,03,06,29,14.20
2010,08,03,06,30,14.30
2010,08,03,06,31,14.40
2010,08,03,06,32,14.50
2010,08,03,06,33,14.60
2010,08,03,06,34,14.70
2010,08,03,06,35,14.80
2010,08,03,06,36,15.00
2010,08,03,06,37,15.00
2010,08,03,06,38,15.00
2010,08,03,06,39,15.00
2010,08,03,06,40,15.20
2010,08,03,06,41,15.30
2010,08,03,06,42,15.30
2010,08,03,06,43,15.40
2010,08,03,06,44,15.50
2010,08,03,06,45,15.50
2010,08,03,06,46,15.50
2010,08,03,06,47,15.60
2010,08,03,06,48,15.60
2010,08,03,06,49,15.60
2010,08,03,06,50,15.60
2010,08,03,06,51,15.60
2010,08,03,06,52,15.60
2010,08,03,06,53,15.60
2010,08,03,06,54,15.60
2010,08,03,06,55,15.60
2010,08,03,06,56,15.50
2010,08,03,06,57,15.50
2010,08,03,06,58,15.40
2010,08,03,06,59,15.40
2010,08,03,07,00,15.40
2010,08,03,07,01,15.30
2010,08,03,07,02,15.30
2010,08,03,07,03,15.30
2010,08,03,07,04,15.30
2010,08,03,07,05,15.30
2010,08,03,07,06,15.20
2010,08,03,07,07,15.30
2010,08,03,07,08,15.30
2010,08,03,07,09,15.30
2010,08,03,07,10,15.20
2010,08,03,07,11,15.20
2010,08,03,07,12,15.20
2010,08,03,07,13,15.20
2010,08,03,07,14,15.20
2010,08,03,07,15,15.20
2010,08,03,07,16,15.20
2010,08,03,07,17,15.10
2010,08,03,07,18,15.10
2010,08,03,07,19,15.00
2010,08,03,07,20,15.00
2010,08,03,07,21,15.00
2010,08,03,07,22,15.00
2010,08,03,07,23,15.00
2010,08,03,07,24,15.00
2010,08,03,07,25,15.00
2010,08,03,07,26,15.00
2010,08,03,07,27,15.00
2010,08,03,07,28,15.00
2010,08,03,07,29,15.00
2010,08,03,07,30,15.00
2010,08,03,07,31,15.00
2010,08,03,07,32,15.00
2010,08,03,07,33,15.00
2010,08,03,07,34,15.00
2010,08,03,07,35,15.00
2010,08,03,07,36,15.00
2010,08,03,07,37,15.00
2010,08,03,07,38,15.00
2010,08,03,07,39,15.00
2010,08,03,07,40,15.00
2010,08,03,07,41,15.00
2010,08,03,07,42,15.00
2010,08,03,07,43,15.00
2010,08,03,07,44,15.00
2010,08,03,07,45,15.00
2010,08,03,07,46,15.10
2010,08,03,07,47,15.10
2010,08,03,07,48,15.10
2010,08,03,07,49,15.20
2010,08,03,07,50,15.20
2010,08,03,07,51,15.20
2010,08,03,07,52,15.20
2010,08,03,07,53,15.20
2010,08,03,07,54,15.30
2010,08,03,07,55,15.30
2010,08,03,07,56,15.30
2010,08,03,07,57,15.30
2010,08,03,07,58,15.40
2010,08,03,07,59,15.40
2010,08,03,08,00,15.40
2010,08,03,08,01,15.50
2010,08,03,08,02,15.50
2010,08,03,08,03,15.50
2010,08,03,08,04,15.60
2010,08,03,08,05,15.60
2010,08,03,08,06,15.60
2010,08,03,08,07,15.70
2010,08,03,08,08,15.70
2010,08,03,08,09,15.70
2010,08,03,08,10,15.80
2010,08,03,08,11,15.80
2010,08,03,08,12,15.80
2010,08,03,08,13,15.90
2010,08,03,08,14,15.90
2010,08,03,08,15,16.00
2010,08,03,08,16,16.00
2010,08,03,08,17,16.10
2010,08,03,08,18,16.10
2010,08,03,08,19,16.10
2010,08,03,08,20,16.20
2010,08,03,08,21,16.20
2010,08,03,08,22,16.20
2010,08,03,08,23,16.30
2010,08,03,08,24,16.30
2010,08,03,08,25,16.30
2010,08,03,08,26,16.30
2010,08,03,08,27,16.40
2010,08,03,08,28,16.40
2010,08,03,08,29,16.40
2010,08,03,08,30,16.40
2010,08,03,08,31,16.40
2010,08,03,08,32,16.40
2010,08,03,08,33,16.50
2010,08,03,08,34,16.50
2010,08,03,08,35,16.50
2010,08,03,08,36,16.60
2010,08,03,08,37,16.60
2010,08,03,08,38,16.60
2010,08,03,08,39,16.60
2010,08,03,08,40,16.60
2010,08,03,08,41,16.60
2010,08,03,08,42,16.60
2010,08,03,08,43,16.60
2010,08,03,08,44,16.60
2010,08,03,08,46,16.70
2010,08,03,08,47,16.70
2010,08,03,08,48,16.70
2010,08,03,08,49,16.70
2010,08,03,08,50,16.70
2010,08,03,08,51,16.80
2010,08,03,08,52,16.80
2010,08,03,08,53,16.80
2010,08,03,08,54,16.90
2010,08,03,08,55,16.90
2010,08,03,08,56,16.90
2010,08,03,08,57,17.00
2010,08,03,08,58,17.00
2010,08,03,08,59,17.00
2010,08,03,09,00,17.10
2010,08,03,09,01,17.10
2010,08,03,09,02,17.10
2010,08,03,09,03,17.20
2010,08,03,09,04,17.20
2010,08,03,09,05,17.20
2010,08,03,09,06,17.20
2010,08,03,09,07,17.20
2010,08,03,09,08,17.20
2010,08,03,09,09,17.20
2010,08,03,09,10,17.30
2010,08,03,09,11,17.30
2010,08,03,09,12,17.30
2010,08,03,09,13,17.30
2010,08,03,09,14,17.40
2010,08,03,09,15,17.40
2010,08,03,09,16,17.40
2010,08,03,09,17,17.40
2010,08,03,09,18,17.40
2010,08,03,09,19,17.40
2010,08,03,09,20,17.40
2010,08,03,09,21,17.40
2010,08,03,09,22,17.40
2010,08,03,09,23,17.40
2010,08,03,09,24,17.30
2010,08,03,09,25,17.30
2010,08,03,09,26,17.20
2010,08,03,09,27,17.20
2010,08,03,09,28,17.20
2010,08,03,09,29,17.20
2010,08,03,09,30,17.20
2010,08,03,09,31,17.20
2010,08,03,09,32,17.20
2010,08,03,09,33,17.20
2010,08,03,09,34,17.10
2010,08,03,09,35,17.10
2010,08,03,09,36,17.00
2010,08,03,09,37,16.90
2010,08,03,09,38,16.90
2010,08,03,09,39,16.80
2010,08,03,09,40,16.80
2010,08,03,09,41,16.80
2010,08,03,09,42,16.90
2010,08,03,09,43,16.90
2010,08,03,09,44,16.90
2010,08,03,09,45,17.00
2010,08,03,09,46,16.90
2010,08,03,09,47,16.90
2010,08,03,09,48,17.00
2010,08,03,09,49,17.00
2010,08,03,09,50,17.00
2010,08,03,09,51,17.00
2010,08,03,09,52,17.00
2010,08,03,09,53,16.90
2010,08,03,09,54,16.90
2010,08,03,09,55,16.90
2010,08,03,09,56,16.90
2010,08,03,09,57,16.90
2010,08,03,09,58,16.90
2010,08,03,09,59,16.90
2010,08,03,10,00,16.80
2010,08,03,10,01,16.80
2010,08,03,10,02,16.80
2010,08,03,10,03,16.90
2010,08,03,10,04,17.00
2010,08,03,10,05,17.10
2010,08,03,10,06,17.10
2010,08,03,10,07,17.10
2010,08,03,10,08,17.10
2010,08,03,10,09,17.00
2010,08,03,10,10,17.00
2010,08,03,10,11,17.10
2010,08,03,10,12,17.10
2010,08,03,10,13,17.10
2010,08,03,10,14,17.10
2010,08,03,10,15,17.20
2010,08,03,10,16,17.20
2010,08,03,10,17,17.30
2010,08,03,10,18,17.40
2010,08,03,10,19,17.50
2010,08,03,10,20,17.50
2010,08,03,10,21,17.70
2010,08,03,10,22,17.80
2010,08,03,10,23,17.90
2010,08,03,10,24,18.00
2010,08,03,10,25,18.10
2010,08,03,10,26,18.00
2010,08,03,10,27,17.90
2010,08,03,10,28,17.80
2010,08,03,10,29,17.70
2010,08,03,10,30,17.60
2010,08,03,10,31,17.60
2010,08,03,10,32,17.50
2010,08,03,10,33,17.60
2010,08,03,10,34,17.60
2010,08,03,10,35,17.60
2010,08,03,10,36,17.60
2010,08,03,10,37,17.50
2010,08,03,10,38,17.50
2010,08,03,10,39,17.50
2010,08,03,10,40,17.60
2010,08,03,10,41,17.60
2010,08,03,10,42,17.60
2010,08,03,10,43,17.60
2010,08,03,10,44,17.50
2010,08,03,10,45,17.50
2010,08,03,10,46,17.50
2010,08,03,10,47,17.60
2010,08,03,10,48,17.60
2010,08,03,10,49,17.60
2010,08,03,10,50,17.60
2010,08,03,10,51,17.50
2010,08,03,10,52,17.50
2010,08,03,10,53,17.40
2010,08,03,10,54,17.40
2010,08,03,10,55,17.40
2010,08,03,10,56,17.40
2010,08,03,10,57,17.40
2010,08,03,10,58,17.40
2010,08,03,10,59,17.40
2010,08,03,11,00,17.50
2010,08,03,11,01,17.50
2010,08,03,11,02,17.50
2010,08,03,11,03,17.40
2010,08,03,11,04,17.40
2010,08,03,11,05,17.30
2010,08,03,11,06,17.30
2010,08,03,11,07,17.30
2010,08,03,11,08,17.30
2010,08,03,11,09,17.30
2010,08,03,11,10,17.30
2010,08,03,11,11,17.40
2010,08,03,11,12,17.50
2010,08,03,11,13,17.50
2010,08,03,11,14,17.60
2010,08,03,11,15,17.60
2010,08,03,11,16,17.60
2010,08,03,11,17,17.60
2010,08,03,11,18,17.60
2010,08,03,11,19,17.50
2010,08,03,11,20,17.50
2010,08,03,11,21,17.40
2010,08,03,11,22,17.30
2010,08,03,11,23,17.30
2010,08,03,11,24,17.30
2010,08,03,11,25,17.30
2010,08,03,11,26,17.30
2010,08,03,11,27,17.30
2010,08,03,11,28,17.50
2010,08,03,11,29,17.60
2010,08,03,11,30,17.70
2010,08,03,11,31,17.70
2010,08,03,11,32,17.70
2010,08,03,11,33,17.80
2010,08,03,11,34,17.80
2010,08,03,11,35,17.90
2010,08,03,11,36,18.00
2010,08,03,11,37,17.90
2010,08,03,11,38,17.80
2010,08,03,11,39,17.80
2010,08,03,11,40,17.70
2010,08,03,11,41,17.70
2010,08,03,11,42,17.70
2010,08,03,11,43,17.70
2010,08,03,11,44,17.60
2010,08,03,11,45,17.60
2010,08,03,11,46,17.60
2010,08,03,11,47,17.60
2010,08,03,11,48,17.60
2010,08,03,11,49,17.60
2010,08,03,11,50,17.70
2010,08,03,11,51,17.80
2010,08,03,11,52,17.90
2010,08,03,11,53,18.00
2010,08,03,11,54,18.10
2010,08,03,11,55,18.10
2010,08,03,11,56,18.20
2010,08,03,11,57,18.30
2010,08,03,11,58,18.30
2010,08,03,11,59,18.40
2010,08,03,12,00,18.40
2010,08,03,12,01,18.40
2010,08,03,12,02,18.40
2010,08,03,12,03,18.50
2010,08,03,12,04,18.50
2010,08,03,12,05,18.50
2010,08,03,12,06,18.50
2010,08,03,12,07,18.50
2010,08,03,12,08,18.50
2010,08,03,12,09,18.60
2010,08,03,12,10,18.70
2010,08,03,12,11,18.70
2010,08,03,12,12,18.80
2010,08,03,12,13,18.90
2010,08,03,12,14,18.90
2010,08,03,12,15,19.00
2010,08,03,12,16,19.00
2010,08,03,12,17,19.10
2010,08,03,12,18,19.10
2010,08,03,12,19,19.00
2010,08,03,12,20,18.90
2010,08,03,12,21,18.90
2010,08,03,12,22,18.90
2010,08,03,12,23,18.90
2010,08,03,12,24,18.90
2010,08,03,12,25,19.00
2010,08,03,12,26,19.10
2010,08,03,12,27,19.10
2010,08,03,12,28,19.10
2010,08,03,12,29,19.00
2010,08,03,12,30,19.00
2010,08,03,12,31,18.90
2010,08,03,12,32,18.80
2010,08,03,12,33,18.90
2010,08,03,12,34,19.00
2010,08,03,12,35,19.10
2010,08,03,12,36,19.20
2010,08,03,12,37,19.20
2010,08,03,12,38,19.20
2010,08,03,12,39,19.20
2010,08,03,12,40,19.20
2010,08,03,12,41,19.30
2010,08,03,12,42,19.50
2010,08,03,12,43,19.50
2010,08,03,12,44,19.50
2010,08,03,12,45,19.60
2010,08,03,12,46,19.60
2010,08,03,12,47,19.60
2010,08,03,12,48,19.60
2010,08,03,12,49,19.60
2010,08,03,12,50,19.60
2010,08,03,12,51,19.60
2010,08,03,12,52,19.60
2010,08,03,12,53,19.60
2010,08,03,12,54,19.60
2010,08,03,12,55,19.60
2010,08,03,12,56,19.50
2010,08,03,12,57,19.50
2010,08,03,12,58,19.60
2010,08,03,12,59,19.60
2010,08,03,13,00,19.60
2010,08,03,13,01,19.50
2010,08,03,13,02,19.40
2010,08,03,13,03,19.40
2010,08,03,13,04,19.40
2010,08,03,13,05,19.40
2010,08,03,13,06,19.50
2010,08,03,13,07,19.50
2010,08,03,13,08,19.40
2010,08,03,13,09,19.40
2010,08,03,13,10,19.40
2010,08,03,13,11,19.40
2010,08,03,13,12,19.40
2010,08,03,13,13,19.30
2010,08,03,13,14,19.30
2010,08,03,13,15,19.30
2010,08,03,13,16,19.20
2010,08,03,13,17,19.20
2010,08,03,13,18,19.40
2010,08,03,13,19,19.40
2010,08,03,13,20,19.50
2010,08,03,13,21,19.60
2010,08,03,13,22,19.60
2010,08,03,13,23,19.60
2010,08,03,13,24,19.50
2010,08,03,13,25,19.50
2010,08,03,13,26,19.50
2010,08,03,13,27,19.50
2010,08,03,13,28,19.50
2010,08,03,13,29,19.40
2010,08,03,13,30,19.40
2010,08,03,13,31,19.40
2010,08,03,13,32,19.40
2010,08,03,13,33,19.40
2010,08,03,13,34,19.30
2010,08,03,13,35,19.30
2010,08,03,13,36,19.30
2010,08,03,13,37,19.40
2010,08,03,13,38,19.50
2010,08,03,13,39,19.60
2010,08,03,13,40,19.50
2010,08,03,13,41,19.50
2010,08,03,13,42,19.50
2010,08,03,13,43,19.40
2010,08,03,13,44,19.30
2010,08,03,13,45,19.30
2010,08,03,13,46,19.30
2010,08,03,13,47,19.30
2010,08,03,13,48,19.30
2010,08,03,13,49,19.30
2010,08,03,13,50,19.30
2010,08,03,13,51,19.40
2010,08,03,13,52,19.40
2010,08,03,13,53,19.40
2010,08,03,13,54,19.50
2010,08,03,13,55,19.60
2010,08,03,13,56,19.60
2010,08,03,13,57,19.60
2010,08,03,13,58,19.60
2010,08,03,13,59,19.60
2010,08,03,14,00,19.70
2010,08,03,14,01,19.70
2010,08,03,14,02,19.80
2010,08,03,14,03,19.80
2010,08,03,14,04,19.90
2010,08,03,14,05,20.00
2010,08,03,14,06,20.10
2010,08,03,14,07,20.10
2010,08,03,14,08,20.20
2010,08,03,14,09,20.10
2010,08,03,14,10,20.20
2010,08,03,14,11,20.20
2010,08,03,14,12,20.20
2010,08,03,14,13,20.20
2010,08,03,14,14,20.30
2010,08,03,14,15,20.40
2010,08,03,14,16,20.50
2010,08,03,14,17,20.60
2010,08,03,14,18,20.70
2010,08,03,14,19,20.80
2010,08,03,14,20,20.80
2010,08,03,14,21,20.90
2010,08,03,14,22,21.00
2010,08,03,14,23,21.00
2010,08,03,14,24,21.10
2010,08,03,14,25,21.10
2010,08,03,14,26,21.20
2010,08,03,14,27,21.40
2010,08,03,14,28,21.50
2010,08,03,14,29,21.60
2010,08,03,14,30,21.60
2010,08,03,14,31,21.70
2010,08,03,14,32,21.80
2010,08,03,14,33,21.80
2010,08,03,14,34,21.80
2010,08,03,14,35,21.80
2010,08,03,14,36,21.80
2010,08,03,14,37,21.80
2010,08,03,14,38,21.70
2010,08,03,14,39,21.60
2010,08,03,14,40,21.60
2010,08,03,14,41,21.60
2010,08,03,14,42,21.60
2010,08,03,14,43,21.50
2010,08,03,14,44,21.50
2010,08,03,14,45,21.50
2010,08,03,14,46,21.50
2010,08,03,14,47,21.50
2010,08,03,14,48,21.60
2010,08,03,14,49,21.60
2010,08,03,14,50,21.60
2010,08,03,14,51,21.60
2010,08,03,14,52,21.70
2010,08,03,14,53,21.60
2010,08,03,14,54,21.60
2010,08,03,14,55,21.50
2010,08,03,14,56,21.60
2010,08,03,14,57,21.70
2010,08,03,14,58,21.80
2010,08,03,14,59,21.80
2010,08,03,15,00,21.90
2010,08,03,15,01,21.90
2010,08,03,15,02,21.90
2010,08,03,15,03,22.00
2010,08,03,15,04,22.00
2010,08,03,15,05,22.00
2010,08,03,15,06,22.10
2010,08,03,15,07,22.00
2010,08,03,15,08,22.00
2010,08,03,15,09,22.10
2010,08,03,15,10,22.10
2010,08,03,15,11,22.20
2010,08,03,15,12,22.30
2010,08,03,15,13,22.30
2010,08,03,15,14,22.40
2010,08,03,15,15,22.50
2010,08,03,15,16,22.60
2010,08,03,15,17,22.50
2010,08,03,15,18,22.50
2010,08,03,15,19,22.40
2010,08,03,15,20,22.40
2010,08,03,15,21,22.40
2010,08,03,15,22,22.50
2010,08,03,15,23,22.50
2010,08,03,15,24,22.60
2010,08,03,15,25,22.70
2010,08,03,15,26,22.70
2010,08,03,15,27,22.70
2010,08,03,15,28,22.80
2010,08,03,15,29,22.80
2010,08,03,15,30,22.90
2010,08,03,15,31,22.90
2010,08,03,15,32,22.90
2010,08,03,15,33,22.90
2010,08,03,15,34,22.80
2010,08,03,15,35,22.80
2010,08,03,15,36,22.80
2010,08,03,15,37,22.80
2010,08,03,15,38,22.80
2010,08,03,15,39,22.80
2010,08,03,15,40,22.80
2010,08,03,15,41,22.80
2010,08,03,15,42,22.80
2010,08,03,15,43,22.90
2010,08,03,15,44,22.90
2010,08,03,15,45,23.00
2010,08,03,15,46,23.00
2010,08,03,15,47,23.00
2010,08,03,15,48,23.10
2010,08,03,15,49,23.20
2010,08,03,15,50,23.20
2010,08,03,15,51,23.20
2010,08,03,15,52,23.20
2010,08,03,15,53,23.20
2010,08,03,15,54,23.30
2010,08,03,15,55,23.30
2010,08,03,15,56,23.30
2010,08,03,15,57,23.30
2010,08,03,15,58,23.30
2010,08,03,15,59,23.30
2010,08,03,16,00,23.20
2010,08,03,16,01,23.20
2010,08,03,16,02,23.20
2010,08,03,16,03,23.10
2010,08,03,16,04,23.10
2010,08,03,16,05,23.10
2010,08,03,16,06,23.10
2010,08,03,16,07,23.00
2010,08,03,16,08,22.90
2010,08,03,16,09,22.80
2010,08,03,16,10,22.80
2010,08,03,16,11,22.80
2010,08,03,16,12,22.80
2010,08,03,16,13,22.80
2010,08,03,16,14,22.80
2010,08,03,16,15,22.80
2010,08,03,16,16,22.70
2010,08,03,16,17,22.80
2010,08,03,16,18,22.80
2010,08,03,16,19,22.90
2010,08,03,16,20,23.00
2010,08,03,16,21,23.10
2010,08,03,16,22,23.20
2010,08,03,16,23,23.30
2010,08,03,16,24,23.40
2010,08,03,16,25,23.60
2010,08,03,16,26,23.70
2010,08,03,16,27,23.80
2010,08,03,16,28,23.90
2010,08,03,16,29,23.90
2010,08,03,16,30,23.90
2010,08,03,16,31,23.80
2010,08,03,16,32,23.80
2010,08,03,16,33,23.70
2010,08,03,16,34,23.60
2010,08,03,16,35,23.60
2010,08,03,16,36,23.50
2010,08,03,16,37,23.50
2010,08,03,16,38,23.50
2010,08,03,16,39,23.60
2010,08,03,16,40,23.60
2010,08,03,16,41,23.60
2010,08,03,16,42,23.70
2010,08,03,16,43,23.70
2010,08,03,16,44,23.70
2010,08,03,16,45,23.70
2010,08,03,16,46,23.70
2010,08,03,16,47,23.70
2010,08,03,16,48,23.70
2010,08,03,16,49,23.70
2010,08,03,16,50,23.70
2010,08,03,16,51,23.80
2010,08,03,16,52,23.80
2010,08,03,16,53,23.80
2010,08,03,16,54,23.80
2010,08,03,16,55,23.80
2010,08,03,16,56,23.80
2010,08,03,16,57,23.80
2010,08,03,16,58,23.80
2010,08,03,16,59,23.80
2010,08,03,17,00,23.70
2010,08,03,17,01,23.70
2010,08,03,17,02,23.70
2010,08,03,17,03,23.80
2010,08,03,17,04,23.80
2010,08,03,17,05,23.80
2010,08,03,17,06,23.90
2010,08,03,17,07,23.90
2010,08,03,17,08,23.90
2010,08,03,17,09,23.90
2010,08,03,17,10,23.90
2010,08,03,17,11,23.90
2010,08,03,17,12,23.90
2010,08,03,17,13,23.90
2010,08,03,17,14,23.90
2010,08,03,17,15,23.90
2010,08,03,17,16,23.90
2010,08,03,17,17,23.80
2010,08,03,17,18,23.80
2010,08,03,17,19,23.80
2010,08,03,17,20,23.70